Home > Weather > Tamworth > Past weeks

Flag for Australia Past Weather in Tamworth, New South Wales, Australia — Yesterday and Last 2 Weeks

Now
36 °F

Clear.


Feels Like: 36 °F
Forecast: 32 / 55 °F
Wind: No wind

Location: Tamworth Airport

Current Time: Jul 2, 2016 at 3:09:06 AM

Latest Report: Jul 2, 2016 at 2:00 AM


Visibility: N/A

Pressure: 30.27 "Hg

Humidity: 87%

Dew Point: 32 °F

Location of TamworthLocation

Past Weather in Tamworth — Graph

°F

Tamworth Temperature Yesterday

Maximum temperature yesterday: 57 °F (at 2:00 PM)
Minimum temperature yesterday: 37 °F (at 11:00 PM)
Average temperature yesterday: 47 °F

High & Low Weather Summary for the Past Weeks

 TemperatureHumidityPressure
High68 °F (Jun 17, 12:30 PM)94% (Jun 18, 8:00 AM)30.36 "Hg (Jun 18, 8:00 AM)
Low28 °F (Jun 26, 3:00 AM)41% (Jul 1, 3:00 PM)29.65 "Hg (Jun 20, 2:30 AM)
Average48 °F77%30.02 "Hg
* Reported Jun 17 2:00 AM — Jul 2 2:00 AM, Tamworth, Weather by CustomWeather, © 2016

Note: Actual official high and low records may vary slightly from our data, if they occured in-between our weather recording intervals... More about our weather records

Advertising

Tamworth Weather History for the Previous 24 Hours

Scroll right to see more
 ConditionsComfort  
Time TempWeatherWind HumidityBarometerVisibility
2:00 AM
Sat, Jul 2
36 °FClear.No wind87%30.27 "HgN/A
1:30 AM37 °FClear.No wind87%30.27 "HgN/A
1:00 AM37 °FClear.No wind87%30.24 "HgN/A
12:00 AM37 °FClear.No wind87%30.24 "HgN/A
11:30 PM
Fri, Jul 1
37 °FClear.No wind87%30.24 "HgN/A
11:00 PM37 °FClear.6 mph81%30.24 "HgN/A
10:00 PM39 °FClear.5 mph75%30.24 "HgN/A
9:00 PM41 °FClear.No wind76%30.24 "HgN/A
8:00 PM43 °FClear.7 mph71%30.24 "HgN/A
7:30 PM41 °FClear.8 mph76%30.21 "HgN/A
7:00 PM43 °FClear.6 mph71%30.21 "HgN/A
6:00 PM46 °FClear.12 mph66%30.18 "HgN/A
5:30 PM46 °FClear.10 mph66%30.15 "HgN/A
5:00 PM50 °FClear.12 mph58%30.15 "HgN/A
4:30 PM54 °FClear.10 mph51%30.12 "HgN/A
4:00 PM55 °FSunny.10 mph47%30.12 "HgN/A
3:30 PM55 °FSunny.16 mph44%30.12 "HgN/A
3:00 PM57 °FSunny.15 mph41%30.12 "HgN/A
2:00 PM57 °FScattered clouds.14 mph48%30.09 "HgN/A
1:30 PM55 °FSunny.15 mph51%30.12 "HgN/A
1:00 PM55 °FSunny.17 mph51%30.09 "HgN/A
12:30 PM55 °FSunny.12 mph55%30.12 "HgN/A
12:00 PM55 °FSunny.13 mph51%30.12 "HgN/A
11:30 AM55 °FSunny.13 mph55%30.12 "HgN/A
11:00 AM54 °FSunny.15 mph58%30.12 "HgN/A
10:30 AM54 °FScattered clouds.13 mph67%30.15 "HgN/A
10:00 AM54 °FSunny.14 mph63%30.15 "HgN/A
9:00 AM50 °FPartly sunny.12 mph67%30.12 "HgN/A
8:30 AM48 °FMore clouds than sun.8 mph71%30.12 "HgN/A
8:00 AM46 °FMostly cloudy.8 mph76%30.12 "HgN/A
7:30 AM45 °FMore clouds than sun.7 mph81%30.12 "HgN/A
7:00 AM46 °FMostly cloudy.7 mph76%30.12 "HgN/A
6:30 AM46 °FOvercast.8 mph76%30.09 "HgN/A
6:00 AM46 °FOvercast.8 mph76%30.09 "HgN/A
5:00 AM43 °FOvercast.5 mph87%30.09 "HgN/A
4:00 AM41 °FOvercast.5 mph87%30.09 "HgN/A
3:00 AM39 °FPassing clouds.No wind81%30.07 "HgN/A
Weather by CustomWeather, © 2016

See weather overviewHow to use our weather pages